Location: Grasslands National Park East Block
(49.0708°N, 106.5295°W)
Time: 14:43:49
(UTC-06:00)

SR - Pass Details

Date: 27 October 2019
Orbit: 573 x 882 km, 66.7° (Epoch: 21 November)

Event Time Altitude Azimuth Distance (km) Brightness Sun altitude
Exits shadow 03:40:04 20° 18° (NNE) 1,924 ? -39.6°
Maximum altitude 03:40:39 20° 26° (NNE) 1,914 ? -39.5°
Drops below altitude 10° 03:44:56 10° 72° (ENE) 2,544 ? -38.9°
Sets 03:48:09 0° 89° (E) 3,478 ? -38.5°
